Theta_e
291 288 287 286 288 290 289 287 287 287 285 285 283 280 281 281 283 284 287 290 288 288 287 287 287 287 289 291 293 293 289 288 288 290 292 292 292 293 294 294 295 295 296 297 297 297 298 299 298 300 303 306 307 310 312 314 315 317 319 318 319 320 320 322 322 321 321 320 320 320 323 323 325 326 327 327 329 330 331 331 332 332 331 330 329 327
290 287 286 288 289 289 288 285 286 285 285 286 284 283 282 283 286 287 289 288 288 288 283 282 284 286 287 289 290 291 287 289 290 291 290 291 292 292 292 293 294 296 295 294 295 295 294 296 297 297 301 303 306 308 311 314 316 317 318 318 319 318 319 321 323 322 321 322 323 322 322 323 323 323 323 325 326 327 327 329 330 330 331 332 331 327
288 285 289 289 287 285 285 285 284 285 284 283 285 281 283 284 282 285 287 287 288 289 285 281 286 289 289 290 291 290 291 291 290 290 292 291 291 291 292 292 294 294 295 294 295 293 294 294 295 296 298 302 307 307 310 313 314 313 315 317 317 317 319 320 321 321 321 320 318 318 314 320 311 313 321 322 322 323 324 325 328 330 331 331 330 330
286 286 289 287 287 287 285 285 285 284 283 282 282 283 282 281 285 285 285 286 287 287 287 285 286 289 288 287 289 290 289 289 289 289 290 291 291 292 293 294 294 294 294 295 295 295 293 292 293 293 297 299 303 303 305 309 313 314 315 316 316 316 317 319 319 318 319 315 311 307 305 309 312 310 308 315 315 319 321 323 324 326 329 330 330 329
285 287 286 288 286 289 286 285 286 286 286 282 280 280 282 286 285 284 287 286 282 287 284 284 285 285 280 281 284 288 283 286 288 287 289 291 291 293 293 292 293 294 293 293 294 294 291 292 294 296 298 296 299 303 306 308 312 315 315 316 317 317 316 317 315 315 312 309 306 302 303 303 306 306 307 311 315 317 317 320 320 322 322 325 327 329
286 286 286 288 286 285 286 285 285 286 283 283 282 283 283 282 286 286 282 285 277 281 282 283 279 275 277 279 281 284 283 286 283 284 287 290 291 290 291 293 292 291 290 293 295 296 293 292 292 292 294 297 299 301 305 307 310 311 312 312 313 313 312 314 313 313 312 313 312 308 310 307 304 308 306 310 314 315 316 318 317 319 320 321 322 325
285 288 288 289 287 285 286 285 284 286 282 283 286 284 283 284 284 284 285 281 279 279 283 281 280 275 279 281 284 283 282 286 287 286 289 288 288 288 289 290 290 291 292 290 291 292 292 293 293 294 295 297 298 300 300 301 303 306 307 309 311 312 311 310 309 309 310 310 310 311 314 314 313 313 311 307 305 312 314 315 317 318 317 319 320 320
289 288 286 287 287 286 285 286 286 286 284 283 283 283 285 285 285 283 281 283 279 279 282 279 275 277 279 282 281 280 282 285 286 288 287 287 286 286 288 289 289 289 289 291 292 292 292 293 294 297 296 295 298 298 298 299 300 305 306 307 308 308 307 306 307 308 310 312 310 310 311 312 312 313 313 307 306 303 306 312 315 315 316 316 317 319
289 288 287 286 284 284 286 284 287 285 284 284 284 285 284 285 283 281 280 280 280 281 280 278 284 280 276 280 281 280 285 284 286 286 285 287 289 288 288 287 287 288 288 290 292 293 293 293 294 295 296 295 296 297 297 298 299 300 301 302 303 304 304 303 305 307 307 310 311 311 311 310 310 310 307 300 301 303 301 307 309 313 314 314 314 315
290 289 288 288 286 285 284 286 284 288 289 287 284 285 283 282 282 280 279 281 279 279 275 279 281 276 277 278 279 279 283 283 283 285 287 288 289 289 290 290 289 288 288 289 291 292 293 294 293 292 293 294 296 296 296 297 297 298 298 300 301 302 302 302 304 305 306 307 307 308 308 309 309 303 300 299 301 300 298 304 305 309 311 312 312 312
289 291 290 287 287 285 285 286 285 286 288 288 285 287 283 280 280 278 278 276 277 272 275 278 279 279 277 279 279 282 284 281 282 285 285 287 290 293 292 292 292 292 291 290 290 290 292 290 291 290 295 294 294 294 295 296 296 296 297 298 300 301 300 300 303 304 305 305 306 308 308 308 308 304 302 300 300 298 297 301 302 303 306 308 311 311
288 288 291 288 289 286 287 288 286 285 285 287 284 280 285 281 278 278 272 275 273 269 273 276 278 279 275 275 280 281 282 283 288 290 290 291 291 291 290 291 291 290 291 291 290 292 291 291 291 291 293 292 292 294 295 295 295 296 296 296 299 298 299 299 301 301 303 304 305 305 306 306 306 304 303 303 304 302 302 302 302 300 299 301 304 306
287 288 286 289 290 290 286 289 287 286 282 284 282 283 277 272 269 273 269 274 271 270 279 277 278 279 280 282 285 284 285 285 284 286 286 291 289 289 290 290 290 290 289 290 290 290 291 290 291 292 290 291 292 292 293 294 294 294 295 296 298 299 297 299 299 301 302 302 303 304 304 304 304 303 303 304 303 302 302 302 301 300 300 298 300 303
284 282 286 290 290 291 290 288 285 286 284 283 285 277 273 271 269 264 261 262 266 273 276 278 279 278 278 281 288 290 289 287 286 285 285 288 290 290 289 290 290 290 289 289 289 289 290 290 291 290 290 290 290 291 292 292 294 294 295 295 297 299 296 296 298 300 300 301 302 302 303 303 303 303 303 303 303 302 302 301 302 301 301 301 301 302
278 279 286 289 287 289 289 289 291 287 285 285 282 284 280 269 266 266 263 271 271 271 274 276 275 274 275 285 286 286 286 286 285 284 284 285 287 287 287 287 288 288 288 288 289 290 292 293 291 293 292 290 290 290 290 291 292 293 295 295 295 297 296 296 298 298 300 301 300 300 301 302 302 303 303 303 302 302 301 300 300 301 301 301 301 301
284 280 282 287 287 289 290 288 287 287 286 282 279 280 278 279 274 273 267 267 265 270 271 274 276 276 281 283 285 285 285 286 286 287 285 288 286 284 288 289 289 288 289 290 290 292 292 291 290 291 292 291 291 290 289 291 292 293 294 295 295 297 297 296 296 298 300 300 300 299 300 301 301 300 300 300 298 300 300 300 300 301 300 301 301 300
281 281 285 287 287 288 289 288 289 288 282 283 283 279 280 280 279 271 270 272 271 269 273 270 278 281 281 283 288 286 286 286 285 285 284 284 285 284 288 286 285 287 288 290 292 292 293 292 291 291 290 291 290 291 292 293 292 294 295 295 296 296 295 295 296 298 298 298 298 299 299 299 299 299 300 301 300 300 299 299 300 300 300 299 299 299
283 279 285 286 287 288 287 287 286 285 285 284 279 281 282 282 279 277 273 265 263 269 272 271 276 276 276 279 281 284 286 285 285 283 283 285 283 287 291 286 286 288 289 289 290 290 290 291 292 293 293 292 292 292 292 292 292 293 294 295 297 296 297 296 296 296 297 298 298 299 299 299 300 300 300 300 299 298 298 298 298 297 297 298 298 298
285 281 283 285 285 288 286 289 288 287 287 283 280 284 285 278 277 276 271 270 266 265 267 270 273 274 278 280 279 283 285 287 287 284 284 287 288 288 289 290 290 289 290 293 292 293 295 295 295 294 295 295 293 292 291 292 292 293 293 295 295 297 297 296 296 296 296 297 299 300 299 299 299 299 299 298 298 297 298 298 298 297 298 297 296 296
287 280 280 285 286 287 287 287 284 284 287 286 286 284 284 279 275 274 276 270 272 268 263 271 267 278 279 279 281 285 283 286 286 286 284 285 286 289 290 290 292 294 294 293 294 292 292 292 292 292 293 295 295 294 294 292 291 292 293 293 295 295 295 295 295 295 296 297 297 298 297 297 298 298 298 298 298 298 298 298 298 298 295 297 296 296
284 283 276 283 286 286 285 285 285 286 283 283 283 281 285 280 282 279 277 274 274 262 262 267 271 274 277 281 282 286 286 284 282 287 287 287 286 287 290 291 293 294 295 294 292 290 290 291 291 291 289 289 288 288 290 290 292 293 293 294 294 295 297 296 297 295 297 295 297 296 297 297 296 296 297 296 297 297 298 297 297 297 297 293 295 293
284 281 279 282 282 283 283 284 286 288 290 288 287 284 286 281 277 275 276 277 269 272 271 264 274 276 281 282 285 286 285 283 284 287 288 287 289 289 292 291 290 292 292 291 290 289 290 289 289 288 288 287 286 289 289 290 288 291 292 295 295 294 296 296 297 296 297 295 296 296 296 296 294 296 295 295 295 295 296 296 296 295 291 293 293 292
287 282 282 277 283 286 286 287 284 286 285 285 285 284 286 284 281 274 273 273 272 274 271 267 268 277 283 284 284 284 283 283 285 286 289 289 289 290 290 291 291 290 291 292 290 290 290 290 290 289 288 289 289 289 287 286 288 291 291 291 291 292 295 295 297 295 295 295 294 295 294 293 294 293 292 294 295 294 294 294 292 291 292 293 292 290
290 280 279 279 278 279 284 283 285 285 288 287 285 281 284 284 282 281 276 275 280 272 273 271 270 276 280 282 282 284 283 283 284 285 289 288 289 289 289 289 289 291 291 292 291 291 292 291 290 292 294 296 296 295 291 290 288 289 290 291 291 291 293 293 293 292 293 293 294 293 291 293 292 291 291 292 293 293 293 293 292 291 292 292 291 291
283 281 283 272 271 276 278 282 283 285 286 280 281 282 284 283 279 278 276 274 275 275 277 275 275 279 282 282 283 285 286 286 288 287 285 289 288 289 290 290 290 290 292 293 295 294 294 295 294 294 294 294 295 295 294 293 292 290 291 289 290 292 292 292 290 291 292 291 293 292 291 292 290 290 291 292 292 292 292 291 291 290 291 291 291 291
287 282 282 275 275 273 273 276 279 282 282 282 280 283 284 285 282 282 279 277 276 275 278 275 279 282 284 283 287 286 286 287 287 287 285 286 290 291 291 290 290 291 292 291 293 292 292 291 291 292 293 293 293 293 293 293 293 293 293 293 289 291 292 291 289 290 291 291 291 293 291 291 290 291 291 292 292 292 291 290 289 290 290 290 292 291
279 282 284 284 282 280 282 281 284 285 282 283 283 285 284 286 286 286 282 277 280 280 276 282 284 282 282 284 285 287 285 287 289 287 288 289 288 288 289 289 289 289 288 289 289 289 289 292 292 291 292 292 292 292 292 292 293 293 292 293 292 289 289 290 288 290 290 290 290 291 292 291 291 292 291 291 291 289 289 289 289 289 290 289 290 291
278 281 283 283 284 285 284 282 284 289 285 286 285 284 285 285 285 284 283 282 286 276 278 283 283 282 284 282 284 286 286 285 286 287 288 289 290 290 290 287 289 288 289 289 289 290 290 290 291 292 292 291 292 292 292 292 292 291 291 292 292 291 290 290 288 289 289 289 289 290 292 292 291 290 291 290 289 289 289 289 289 289 289 288 289 290
283 281 284 282 283 284 282 281 283 286 287 287 287 286 284 285 284 283 284 287 284 282 281 285 283 284 287 287 288 288 288 289 289 287 288 291 288 287 288 290 289 288 288 288 290 290 290 291 290 291 291 291 290 291 291 292 292 292 293 292 292 290 291 289 288 289 289 289 289 291 293 292 291 289 289 289 289 289 289 289 289 288 288 288 289 289
285 279 281 282 283 284 282 282 282 285 284 284 285 286 286 285 284 286 287 288 287 284 286 288 284 285 289 286 288 290 288 288 288 288 289 289 290 289 288 288 288 288 287 288 289 289 289 289 289 289 289 290 290 290 290 291 291 291 291 292 292 291 291 289 289 288 289 289 290 291 291 290 290 290 288 288 289 289 289 288 288 288 288 288 289 289
288 281 287 282 279 281 281 282 282 283 284 283 284 285 285 286 286 286 287 287 287 286 287 286 285 285 288 286 288 290 288 289 290 289 290 289 289 289 288 288 287 287 288 289 288 288 287 286 287 287 289 290 289 289 290 290 290 290 290 291 291 291 291 289 289 289 288 289 290 290 289 289 290 289 289 289 288 288 288 288 288 287 288 288 288 288
287 282 282 281 279 277 281 282 281 281 282 281 282 283 283 284 283 285 284 287 285 285 286 285 284 285 289 287 289 289 289 291 290 289 290 290 289 287 288 288 288 289 289 289 287 286 286 287 288 288 288 289 289 288 289 289 289 288 289 290 290 290 289 289 289 289 290 289 289 289 289 289 289 289 289 288 289 288 288 287 287 287 287 288 287 288
286 285 283 281 280 280 281 282 281 282 281 280 282 285 285 285 286 287 287 287 288 289 286 283 285 291 288 288 288 288 289 288 288 289 288 289 287 286 287 289 289 288 288 288 287 286 286 286 286 287 287 287 289 288 288 287 287 288 289 289 289 288 288 289 288 289 289 289 288 289 288 288 288 288 288 288 288 288 287 287 287 287 287 287 288 285
286 287 284 285 282 281 279 281 282 282 277 279 290 291 289 287 286 284 285 287 288 288 287 289 289 288 287 288 289 288 288 289 290 289 289 290 288 286 286 286 286 286 286 285 286 286 286 287 287 287 286 286 287 286 286 286 286 287 287 287 287 287 288 288 288 287 288 288 288 288 287 287 287 288 288 288 288 287 287 286 287 288 287 287 286 286
286 286 284 285 283 281 280 283 281 277 279 290 288 289 292 291 289 287 288 288 287 288 289 289 290 290 291 291 291 290 290 289 287 288 287 286 286 287 287 287 287 286 285 285 285 285 285 286 287 287 288 289 288 287 287 288 287 287 287 287 287 287 287 288 288 288 288 288 288 287 287 287 287 287 288 287 287 287 287 287 287 287 287 286 287 286
286 286 285 285 285 285 282 282 277 278 287 286 287 287 287 290 287 287 286 289 290 289 290 289 291 293 293 291 288 288 288 286 286 285 286 287 286 286 286 287 287 286 286 285 286 286 285 286 286 286 287 287 286 287 286 287 287 286 287 287 287 287 287 287 287 288 288 288 288 288 287 287 287 287 287 287 286 286 287 287 287 287 286 285 286 285
290 288 286 284 287 281 282 283 283 287 285 285 284 284 287 285 286 287 284 288 291 292 292 292 292 293 291 288 285 285 286 287 286 287 285 284 286 286 288 287 287 285 285 284 284 286 286 285 285 286 285 286 286 286 287 287 286 285 285 286 287 287 287 287 287 287 287 287 288 288 288 287 287 287 287 287 287 287 287 287 286 286 284 284 285 285
293 287 287 286 283 286 282 279 280 281 279 285 286 284 289 289 293 293 290 287 288 291 294 293 292 292 290 284 285 285 287 288 285 286 287 284 284 286 284 284 283 283 283 283 283 283 284 285 285 285 284 285 285 286 285 284 284 284 285 286 286 286 286 287 287 287 287 287 288 287 287 287 287 287 287 287 287 287 287 287 286 286 284 285 285 284
290 291 288 286 284 284 282 280 279 278 281 287 286 287 288 288 291 288 287 284 288 286 285 289 291 289 287 287 285 286 288 287 286 288 288 284 284 285 285 283 283 283 284 284 284 285 285 285 285 285 285 284 285 287 285 284 282 283 284 285 285 285 285 286 287 287 287 287 287 287 287 286 286 286 286 286 287 287 287 287 286 286 282 283 284 284
287 286 286 283 283 284 283 281 278 282 280 282 284 283 284 285 290 288 279 280 287 285 285 287 289 288 287 287 286 287 289 287 286 287 287 286 286 284 285 285 284 283 284 283 283 284 284 284 283 284 284 285 286 286 285 283 283 282 284 284 284 284 285 286 287 287 286 286 286 286 286 286 285 285 285 286 286 286 286 286 284 283 282 282 282 282
284 284 285 281 283 283 284 282 283 282 284 284 283 282 281 287 289 281 277 284 285 283 284 287 287 287 287 286 285 286 286 286 287 287 285 284 284 284 284 282 283 283 284 283 284 285 283 283 284 284 284 285 285 284 283 281 281 282 283 283 283 284 286 286 286 285 285 285 285 285 285 285 285 285 285 285 285 286 285 283 283 282 280 281 280 280
284 285 284 285 282 282 282 281 281 283 285 284 284 284 285 287 278 277 284 283 285 284 283 284 286 284 285 287 285 286 287 284 283 282 283 284 285 285 284 282 282 282 282 282 283 282 283 283 283 283 283 283 284 283 282 281 282 283 283 283 284 285 285 285 285 285 284 284 284 284 284 284 284 283 283 283 282 283 283 281 280 280 280 279 279 279
284 283 281 282 284 285 282 280 280 276 286 288 286 285 285 282 283 286 284 284 285 285 283 282 283 283 283 284 283 283 282 283 283 284 283 281 283 282 283 282 282 282 282 282 283 283 283 282 283 283 284 284 283 282 281 279 280 282 283 283 284 285 285 285 284 284 283 283 282 282 282 282 282 282 282 281 281 280 281 280 277 277 277 278 278 278
288 283 283 284 287 280 281 278 279 286 286 288 291 286 286 285 286 287 289 285 285 284 283 282 282 281 282 285 284 282 283 284 283 282 281 281 280 280 281 282 282 282 282 282 283 283 281 283 283 283 283 284 284 284 283 280 282 281 281 283 285 284 284 284 284 283 282 282 282 282 281 281 280 279 279 279 279 278 279 279 277 276 277 277 278 278
286 285 287 283 287 285 282 285 286 284 286 286 283 284 282 284 285 285 287 287 286 283 282 283 283 283 283 284 285 285 284 284 284 283 283 282 281 280 281 282 282 282 282 282 283 283 280 282 282 283 283 283 282 283 283 281 282 282 282 284 283 283 283 283 282 281 281 281 281 281 280 279 278 278 277 277 276 278 279 277 274 276 276 276 277 277
282 284 283 284 284 284 284 283 284 282 282 282 282 282 283 283 283 285 286 285 284 282 281 282 281 281 281 282 285 283 284 284 282 282 282 281 281 281 281 281 281 281 281 281 281 282 281 281 280 280 281 282 279 282 282 281 278 281 283 283 280 281 281 280 279 279 280 281 281 281 279 277 278 276 276 276 275 277 278 278 277 277 277 276 277 277
280 281 284 281 282 285 281 283 282 283 281 280 282 282 282 284 284 283 283 283 283 282 282 282 281 281 281 281 283 284 282 280 281 280 281 281 281 281 281 281 280 280 281 281 282 281 281 281 281 281 281 281 282 279 281 282 282 282 282 282 281 279 279 278 278 278 279 280 281 280 279 277 278 278 276 274 274 275 276 276 276 276 277 277 277 277
281 282 284 280 281 282 279 281 282 280 279 280 280 284 284 283 282 282 282 282 282 282 282 282 282 282 281 282 282 281 281 281 280 279 279 279 279 280 280 279 279 279 278 278 279 278 277 278 278 279 279 280 281 281 281 281 282 282 281 280 280 278 277 277 278 279 279 280 280 279 278 277 277 277 277 276 275 276 275 275 276 276 277 277 277 277
280 284 275 279 282 279 281 281 280 281 281 280 281 284 284 284 282 280 281 281 282 282 281 281 281 281 281 280 280 279 278 279 279 278 278 277 278 278 278 278 277 276 276 276 276 276 276 277 277 278 278 279 280 280 280 281 282 282 281 281 279 276 276 278 279 279 279 279 279 279 278 277 277 277 277 276 274 275 276 277 277 277 277 278 278 279
280 279 277 279 274 273 278 281 280 279 277 280 281 282 281 280 281 280 280 280 280 280 280 279 279 278 278 278 277 277 276 277 277 277 276 276 276 276 276 275 275 274 274 274 275 275 275 276 276 277 277 278 278 278 278 278 279 280 280 279 278 276 276 278 279 278 279 280 279 279 278 277 277 276 276 276 275 275 275 277 279 279 277 277 279 281
281 280 279 276 277 277 280 282 284 282 281 282 282 280 278 278 280 280 279 278 277 277 278 278 277 276 275 275 276 276 276 276 275 275 273 273 273 274 274 273 272 273 273 273 273 273 274 274 275 275 274 275 275 275 275 276 277 278 279 279 278 276 276 276 277 278 279 279 279 280 279 278 278 277 276 275 275 275 275 275 277 282 282 281 280 281
Wind_Speed
1 6 7 8 8 9 7 6 3 2 6 5 4 5 3 4 1 2 2 1 1 2 5 5 5 6 10 10 12 11 3 5 6 9 10 8 8 8 9 10 11 11 16 6 5 8 9 9 9 8 6 7 6 6 7 9 10 10 12 10 12 10 8 8 8 8 9 9 7 6 10 11 8 7 7 7 7 7 7 7 8 10 10 8 8 10
4 5 8 8 8 7 5 6 8 8 3 6 6 5 1 1 2 1 1 2 2 1 1 1 2 8 11 12 13 10 4 9 11 11 10 11 10 8 8 11 13 14 6 5 7 7 5 6 5 5 5 6 8 10 10 12 14 13 10 11 11 7 9 10 11 10 10 10 11 10 10 9 7 7 8 8 6 7 5 6 7 8 9 11 10 8
2 8 9 6 3 6 5 3 2 4 5 3 6 4 3 2 2 3 1 2 2 1 5 1 4 9 10 11 12 9 12 8 6 7 8 8 9 9 9 12 13 9 13 6 8 6 6 5 4 4 5 7 11 9 10 11 7 7 8 10 8 9 10 10 11 10 11 8 6 7 5 8 5 4 6 5 4 4 6 6 7 8 8 9 9 10
2 6 10 3 6 7 3 3 6 6 6 5 5 4 4 2 2 1 2 1 3 1 2 2 6 11 6 7 13 10 6 6 6 6 10 8 11 12 14 12 10 11 11 12 9 8 5 5 4 4 6 9 6 5 6 7 10 9 9 9 9 10 10 10 10 11 8 6 4 1 2 3 4 5 4 5 3 4 6 9 7 7 7 8 9 8
8 1 1 9 5 8 5 2 5 5 3 1 2 3 3 1 2 2 1 1 0 1 2 2 4 9 4 4 4 2 2 2 6 5 7 10 10 12 8 7 8 11 8 9 9 8 5 5 7 8 8 4 6 8 9 10 10 9 13 13 12 10 10 8 8 8 5 5 4 3 3 4 3 3 2 4 6 6 6 6 7 8 5 5 7 9
3 1 4 7 4 3 6 2 4 8 1 1 3 4 4 4 5 1 2 2 4 2 3 3 3 3 4 6 7 8 7 7 4 3 8 10 8 5 9 13 6 5 5 8 10 10 6 6 5 5 4 6 7 8 10 6 6 5 7 6 6 6 6 8 8 8 7 8 9 7 6 5 4 6 5 9 11 8 8 9 4 5 6 6 6 6
3 1 2 6 6 4 5 5 4 5 6 3 4 4 4 7 5 5 1 3 1 1 2 2 1 6 5 5 5 5 6 9 7 3 11 7 8 7 10 9 6 6 8 6 7 7 7 7 6 6 5 6 7 7 1 4 5 5 6 6 7 7 6 6 6 7 8 7 7 10 12 11 11 11 9 5 4 6 6 5 6 6 5 7 7 7
2 1 5 4 5 4 5 3 3 8 7 4 1 5 6 6 5 4 4 2 1 1 3 4 3 2 8 7 5 3 5 8 9 11 7 8 7 7 8 8 7 6 6 6 6 6 5 5 5 7 4 4 5 1 3 4 4 6 6 5 6 5 5 4 5 7 9 10 9 9 9 9 10 11 10 6 6 4 4 7 8 6 6 6 7 7
2 3 3 4 2 3 6 3 5 5 6 2 2 6 4 4 3 5 4 4 0 1 6 3 0 0 5 8 4 3 4 7 10 9 8 8 7 6 7 8 7 6 5 5 5 6 5 5 4 5 5 3 2 1 3 4 4 3 3 4 4 5 5 5 6 8 8 9 10 10 9 9 8 7 5 3 3 4 4 5 5 6 6 6 6 6
2 2 4 5 6 6 3 0 3 4 3 1 6 7 7 7 6 4 4 4 1 1 5 2 2 2 8 6 6 2 2 7 7 6 6 5 6 5 3 3 3 3 3 3 5 6 6 5 4 4 3 2 1 1 1 1 2 2 3 4 4 5 4 5 6 7 7 7 7 7 7 10 8 5 3 3 4 4 4 6 6 6 6 6 6 6
1 4 5 3 3 2 4 1 1 1 1 9 4 7 6 9 5 3 6 2 3 2 6 5 2 2 5 5 6 3 4 4 2 3 3 4 4 3 1 2 4 4 3 3 3 3 4 4 3 2 1 1 2 1 1 1 1 2 3 4 4 4 4 4 6 6 8 6 6 8 8 9 9 6 5 5 5 4 4 7 6 6 6 5 7 5
2 1 1 0 3 3 3 5 5 3 3 5 3 4 5 3 6 3 5 5 1 5 5 1 2 1 6 6 6 8 4 3 1 1 1 3 5 4 5 5 5 4 4 5 5 5 5 5 3 4 3 3 3 1 1 1 1 2 3 3 4 3 4 4 4 5 6 6 7 6 7 8 8 6 7 9 10 8 9 8 7 5 4 5 5 4
1 2 1 5 4 6 3 9 4 2 3 6 7 7 6 2 4 3 3 2 5 5 0 2 1 1 10 8 4 4 9 5 5 7 3 2 5 4 4 6 5 5 4 4 4 5 5 5 5 5 5 4 3 1 1 1 1 1 2 4 4 5 4 5 4 6 6 6 7 7 8 7 6 7 8 9 9 7 8 7 7 6 7 5 6 7
4 2 2 2 2 3 5 10 2 2 1 4 8 6 5 1 1 3 3 1 5 5 4 1 0 5 3 6 13 17 8 4 6 8 7 5 7 5 6 6 6 4 2 2 3 4 4 4 4 3 3 4 4 4 3 1 1 1 2 3 4 5 4 4 4 6 6 7 7 6 7 7 6 8 8 8 8 7 7 6 8 8 8 7 9 8
3 4 6 6 2 2 3 5 12 8 8 7 1 9 9 8 5 3 3 5 5 4 2 3 1 7 3 0 1 4 5 5 4 4 5 7 6 5 6 7 5 6 6 2 3 3 4 5 5 5 4 4 3 3 3 3 2 1 3 3 4 4 4 4 5 4 7 7 6 6 6 7 6 8 7 8 6 6 7 6 7 7 6 8 7 8
9 4 4 2 1 4 8 1 3 6 4 0 3 6 5 6 6 1 4 2 0 1 2 1 6 4 4 3 8 3 4 5 5 5 3 7 3 4 6 4 5 6 6 5 5 4 2 4 4 4 4 4 4 4 3 3 2 2 4 3 4 5 5 4 4 6 7 7 6 6 7 8 8 7 6 5 5 6 6 7 8 8 8 7 6 6
3 4 2 6 4 3 1 1 1 2 7 4 4 4 4 2 9 6 1 1 1 3 8 2 7 7 8 6 9 2 1 3 3 4 3 5 6 3 3 3 4 5 5 6 6 5 5 4 2 3 4 4 4 5 4 4 2 4 4 4 5 6 4 5 5 6 6 6 6 7 7 7 7 7 8 9 8 8 6 7 7 7 7 6 6 6
10 4 1 3 3 1 1 0 2 4 3 8 2 7 2 2 4 5 4 2 3 3 7 2 7 5 3 8 5 3 4 5 1 2 2 2 3 1 0 2 3 4 5 5 4 4 3 3 4 3 1 1 3 4 5 5 4 4 4 5 6 6 7 5 5 6 6 7 8 7 8 8 9 9 8 7 7 6 7 7 6 5 6 7 7 7
6 2 1 1 0 5 3 1 2 2 2 4 4 4 7 4 2 1 4 2 1 2 6 4 2 5 7 8 5 0 6 7 7 3 2 0 1 0 2 2 2 3 4 5 5 6 7 7 8 7 8 6 2 1 4 6 4 4 4 5 5 8 6 5 5 5 6 6 7 7 8 8 8 7 7 6 6 6 8 8 7 8 8 6 6 7
1 5 2 1 2 2 1 3 10 4 2 1 3 4 0 3 2 4 6 3 5 4 2 8 3 7 6 6 7 6 7 10 7 1 5 4 3 1 1 1 1 1 2 3 4 4 5 6 5 5 6 7 8 8 7 6 4 4 3 4 5 6 6 5 6 5 7 7 7 7 5 6 6 6 7 7 7 8 9 8 8 8 7 8 7 8
4 1 4 1 2 2 3 5 11 11 9 2 2 2 1 1 2 5 1 3 4 5 5 3 7 5 7 7 7 10 9 7 6 6 6 6 4 2 1 3 2 1 1 1 2 3 4 4 5 6 4 5 6 5 6 7 5 5 4 5 5 7 9 7 7 5 7 5 7 6 8 7 6 8 7 7 7 8 9 8 8 8 7 5 8 6
3 3 8 3 1 5 6 2 2 9 10 11 12 11 12 9 4 5 8 3 2 3 5 3 11 1 4 4 8 9 6 4 4 6 7 5 3 3 2 2 2 2 3 3 3 3 4 4 5 4 5 4 4 6 8 6 3 5 5 6 6 6 9 8 9 6 7 5 6 7 8 7 6 7 6 8 7 9 9 8 8 7 5 8 8 7
4 3 8 4 8 10 3 1 2 0 2 1 2 6 5 4 6 5 6 5 2 2 4 3 1 10 7 1 2 1 1 4 4 4 8 5 3 3 2 3 3 5 3 3 3 4 4 3 3 4 4 4 6 6 4 3 3 5 5 5 6 6 11 6 8 4 5 5 6 8 7 6 7 6 7 8 9 10 10 9 7 6 8 9 7 6
5 4 4 1 3 4 3 3 2 2 2 1 1 2 5 8 6 7 4 7 8 2 1 1 2 8 4 2 2 0 1 2 3 3 7 5 3 2 3 3 2 1 2 1 3 4 5 4 3 1 2 5 7 8 7 5 4 4 5 6 5 8 10 7 5 5 5 6 8 7 6 8 7 6 8 9 9 10 10 8 8 7 8 9 6 8
4 3 8 2 2 3 4 3 2 2 1 3 3 4 4 3 5 2 5 1 1 8 8 8 11 8 3 3 2 1 4 5 6 2 5 4 4 3 2 4 4 5 7 10 11 13 14 14 14 11 10 10 11 11 10 9 7 5 5 5 5 7 7 6 4 4 6 5 8 7 7 9 7 7 9 10 9 11 9 7 7 6 9 7 8 8
6 5 9 8 11 10 9 10 15 15 11 2 1 2 5 8 6 4 4 0 5 4 7 5 10 3 3 3 0 3 4 3 2 3 4 4 0 3 5 5 6 7 8 9 11 11 11 8 8 9 9 9 9 8 9 10 9 9 8 8 5 6 7 5 3 5 6 6 7 8 8 9 7 9 11 10 10 10 7 6 6 7 6 7 9 7
3 2 7 10 14 14 14 5 3 12 5 7 6 9 6 7 11 8 4 5 12 7 7 10 12 3 4 2 1 5 5 7 6 4 5 2 2 3 2 5 5 5 5 6 5 6 7 9 11 9 8 8 7 7 7 7 9 9 9 10 8 5 5 6 4 5 6 5 6 8 9 9 9 9 9 9 8 6 6 7 7 7 9 6 7 8
3 4 8 10 13 13 7 4 8 13 11 13 12 10 12 11 11 11 11 14 10 2 11 11 7 7 12 4 6 7 6 5 5 4 3 1 3 3 4 3 5 6 7 7 6 7 7 8 9 9 9 9 9 9 8 7 7 7 7 9 10 9 7 6 5 5 5 5 6 8 10 9 7 7 8 6 6 7 7 6 7 8 7 6 9 10
5 7 6 6 9 11 3 4 7 6 11 12 16 15 14 13 11 15 16 18 8 10 17 12 10 12 16 11 11 12 9 10 7 5 1 1 2 3 4 5 5 5 5 5 5 6 6 7 7 8 9 9 8 9 10 9 10 10 10 9 8 8 8 6 6 6 5 5 7 10 9 8 6 5 5 6 7 7 8 8 7 7 7 7 9 8
3 4 5 5 10 10 3 4 6 10 6 5 10 14 16 16 17 19 20 19 16 13 14 15 10 16 16 6 12 11 8 5 2 1 1 1 3 1 3 4 4 4 3 4 4 4 4 5 6 7 7 8 8 9 9 9 10 10 10 10 10 9 8 7 7 6 7 7 8 8 7 7 6 6 5 6 8 8 7 7 6 6 7 9 9 8
5 4 4 3 4 7 4 1 3 8 9 8 8 11 13 14 18 21 20 18 15 13 13 13 11 14 9 6 7 4 2 1 1 3 2 3 3 3 1 1 2 3 4 4 4 4 4 4 5 5 7 8 9 8 8 7 8 8 9 8 9 10 8 7 8 7 6 9 8 7 7 7 7 6 7 7 7 7 6 7 6 7 8 9 9 9
4 4 2 3 5 4 2 6 4 2 3 5 7 8 11 14 14 13 13 10 9 13 16 14 13 16 7 8 6 1 2 2 1 2 2 2 0 2 3 1 0 1 1 2 3 4 5 5 6 6 7 8 7 7 7 9 9 9 10 10 10 10 9 9 8 8 9 8 8 8 8 8 7 7 8 6 8 7 7 6 6 8 8 8 8 8
4 5 5 4 6 6 2 6 6 5 3 4 10 15 20 17 15 11 10 10 15 16 15 11 17 18 4 7 5 1 5 3 3 4 3 1 1 4 4 3 2 1 0 0 2 4 4 5 5 5 6 5 7 7 7 5 6 8 9 10 10 9 8 9 7 8 8 8 7 8 7 7 8 8 8 8 8 7 6 6 7 8 8 10 8 5
3 5 4 2 6 2 3 5 4 6 11 14 11 15 12 18 18 13 11 17 15 9 10 10 9 1 5 3 5 5 5 5 5 1 0 5 6 4 1 2 2 2 1 1 2 3 5 5 5 5 4 4 5 4 5 5 5 6 7 7 6 7 8 8 9 6 8 7 7 7 6 6 7 8 8 8 7 6 7 7 10 9 7 7 6 8
4 3 4 2 3 4 3 6 4 12 15 6 2 2 12 10 7 18 18 6 5 7 7 11 12 10 7 6 4 4 5 2 5 7 5 3 4 3 2 1 0 1 1 1 2 3 4 5 6 7 9 8 8 8 8 8 5 6 7 6 8 6 8 9 9 9 8 8 7 6 6 7 7 8 8 7 7 7 8 8 8 8 7 7 9 9
6 5 4 1 3 3 3 7 9 10 4 2 3 2 2 5 6 5 7 8 9 11 13 14 17 17 9 3 4 5 7 7 4 2 3 1 1 2 2 1 1 1 2 3 2 4 4 5 5 6 8 7 6 8 6 7 8 9 11 8 7 9 9 9 10 10 10 12 11 9 7 7 9 8 8 7 7 7 8 8 8 9 7 7 8 7
9 5 3 3 5 8 6 13 12 5 5 2 3 3 6 8 8 11 9 11 12 11 12 14 14 9 4 3 6 3 6 7 6 1 2 2 0 0 0 1 1 2 2 4 3 5 5 5 5 6 6 7 7 7 8 7 7 7 9 10 10 10 9 8 9 10 10 10 10 10 9 8 9 11 9 8 8 9 9 8 9 8 4 7 8 8
8 9 4 8 5 6 5 5 2 5 12 12 5 2 5 6 11 11 9 7 3 10 13 12 12 9 6 6 7 8 6 7 4 4 4 4 2 0 2 3 3 3 3 4 4 4 5 5 5 5 4 8 9 7 5 6 7 8 9 10 10 10 12 10 11 10 10 11 11 11 10 10 9 11 11 9 10 10 9 8 7 7 5 8 9 9
1 5 7 9 3 7 8 7 6 7 7 2 3 5 7 5 8 5 4 9 5 8 6 7 10 6 5 9 7 9 7 6 6 6 5 3 2 1 1 2 2 3 3 3 4 5 6 6 6 7 8 6 8 9 6 5 5 6 9 9 9 9 10 10 11 11 11 13 12 11 11 10 10 9 10 11 11 9 10 9 8 7 4 7 7 9
7 4 6 10 8 6 6 7 8 3 3 2 5 2 4 4 6 7 5 8 4 8 8 8 9 6 6 6 10 8 9 8 5 5 3 2 0 1 1 2 3 4 4 4 4 4 4 5 4 5 6 7 8 8 7 6 6 6 8 9 7 9 10 10 10 11 10 11 11 10 11 10 10 11 9 11 11 9 9 7 6 6 6 7 6 8
5 2 6 10 8 8 10 5 1 4 3 2 4 2 3 4 7 9 13 4 3 5 4 6 7 6 7 7 4 6 1 3 4 2 1 1 2 2 1 2 4 3 4 4 5 4 3 4 4 6 6 6 6 5 5 4 4 6 6 7 7 9 8 8 9 9 10 10 11 11 11 10 9 12 12 8 10 10 9 6 7 7 6 7 6 6
6 4 2 5 8 8 6 6 4 1 3 5 0 6 6 7 6 8 3 1 9 5 4 4 8 5 6 7 5 6 6 1 1 1 1 1 1 3 3 2 2 4 4 4 6 4 4 5 5 6 6 6 5 5 4 4 5 7 7 6 9 9 7 7 8 9 9 11 11 11 12 12 11 9 10 10 8 9 10 6 5 7 6 6 6 7
10 7 6 7 3 3 2 5 4 7 1 7 7 3 2 4 6 5 4 2 1 6 6 2 4 5 5 5 4 5 4 2 0 0 1 2 1 3 4 4 3 3 4 3 4 4 2 3 4 5 6 5 5 4 3 2 5 7 8 10 12 10 9 9 9 9 10 10 11 11 11 11 11 11 9 9 8 8 11 8 5 6 5 6 6 8
6 8 4 6 7 7 9 10 6 3 5 8 10 8 6 6 1 8 11 4 0 2 4 4 0 3 3 7 6 3 3 3 0 1 1 2 2 3 4 4 4 4 4 4 4 6 5 6 5 6 7 8 8 7 5 4 7 6 6 11 9 8 9 10 10 9 11 11 11 11 11 10 10 9 8 9 9 8 9 9 6 5 6 5 7 7
6 8 6 9 5 8 6 5 1 1 3 2 2 1 1 1 3 3 4 9 9 3 1 4 3 3 3 3 4 4 2 2 1 1 1 1 2 3 3 4 4 5 5 6 7 6 5 6 8 8 8 7 7 8 7 6 8 11 11 9 6 9 10 11 11 11 12 12 12 11 10 9 9 9 8 8 7 8 9 8 5 7 6 5 7 7
3 2 1 3 3 1 2 1 1 2 2 3 3 1 4 4 2 6 9 9 2 4 4 4 1 3 4 3 4 2 1 0 1 2 1 1 2 3 3 3 3 4 5 5 5 6 6 7 6 6 8 8 5 7 7 6 5 10 13 8 5 7 8 9 11 12 13 13 12 12 9 10 11 8 8 8 6 8 8 8 7 7 7 6 7 7
2 1 1 2 1 5 7 3 4 6 2 3 4 3 2 3 3 3 6 4 4 5 3 2 4 3 3 4 3 1 1 1 1 2 2 3 4 5 6 5 4 4 6 8 7 8 9 8 10 11 11 12 8 5 8 9 8 8 10 10 7 5 7 9 10 12 12 12 11 11 9 9 10 9 7 5 6 7 7 7 7 7 8 7 7 8
3 3 3 2 3 7 3 1 1 2 1 0 2 8 6 5 6 5 4 4 6 5 5 4 4 6 4 5 2 2 0 0 0 2 2 3 3 4 4 5 6 6 5 5 6 5 6 7 8 10 11 12 10 7 8 8 9 9 8 8 7 7 7 9 10 11 13 14 11 10 9 9 11 11 9 8 6 7 8 7 7 8 10 9 9 9
3 7 4 5 5 0 3 1 1 3 5 3 1 1 3 6 8 6 6 8 7 9 7 7 5 4 5 4 3 3 2 1 1 1 1 2 3 4 4 6 6 5 5 6 6 6 8 8 9 9 10 12 10 8 9 10 11 10 9 8 7 6 8 11 12 12 13 13 10 11 9 8 9 9 9 9 7 8 8 9 8 10 10 9 7 9
4 7 2 4 2 2 7 6 6 7 3 2 4 5 3 2 8 8 7 7 6 8 6 8 5 4 4 3 2 2 2 1 2 4 4 4 4 6 7 8 8 8 7 6 7 8 8 8 8 11 12 11 9 9 11 12 13 12 9 7 7 7 8 11 12 12 13 12 10 10 9 8 8 8 8 8 9 8 9 9 12 11 9 9 9 12
8 7 7 6 8 8 6 7 8 3 3 7 10 4 1 2 7 9 7 8 5 4 3 6 6 2 3 3 4 5 4 3 4 5 6 6 7 6 6 6 9 10 11 10 11 11 10 10 11 12 14 14 12 13 12 13 14 14 11 8 7 7 8 8 10 11 12 11 10 11 10 10 10 9 7 8 9 8 9 9 7 14 18 15 10 11
Wind_Direction
113 136 176 191 194 192 194 172 168 171 152 117 86 104 167 168 273 275 285 275 5 98 243 231 258 273 276 269 271 276 331 317 288 275 263 256 252 247 250 250 250 249 246 257 236 241 237 233 223 219 205 213 210 211 203 203 206 204 202 188 205 198 185 183 188 191 191 197 204 216 213 218 212 214 211 211 212 209 210 203 202 202 206 205 201 199
66 155 226 207 202 183 165 134 114 73 56 139 137 134 171 172 144 214 123 352 324 148 297 39 323 269 259 271 268 273 315 270 252 254 257 255 249 249 249 257 251 247 281 285 279 266 269 255 242 217 203 191 196 217 200 203 207 204 197 196 203 178 188 194 194 194 195 200 202 198 210 211 206 208 211 217 211 213 212 211 209 209 208 208 206 202
116 191 225 210 151 97 99 117 71 115 113 51 147 162 107 252 238 290 288 338 331 75 270 354 336 275 264 261 264 246 243 244 241 226 244 246 260 255 249 251 260 275 269 263 251 264 262 272 276 217 214 212 213 211 202 212 205 199 199 204 196 190 189 199 195 189 202 202 203 197 200 192 208 230 218 219 211 201 209 215 216 212 208 209 210 199
131 277 236 148 134 114 64 90 99 72 63 107 100 109 192 241 119 249 282 2 354 70 293 321 312 281 277 276 263 266 240 258 259 247 249 230 241 245 241 237 248 256 263 272 272 267 254 253 262 247 224 222 214 213 204 203 203 200 202 200 197 196 196 195 197 198 200 186 165 130 144 171 170 192 200 205 215 204 208 220 215 221 214 207 206 204
188 228 46 125 148 141 139 131 125 132 166 4 120 126 121 161 213 146 206 326 320 50 58 330 291 299 336 343 335 350 340 315 285 308 272 257 239 247 275 292 242 249 259 275 284 276 273 270 246 225 231 212 206 212 208 200 200 198 200 201 198 194 195 197 190 189 164 134 126 103 68 72 73 43 117 189 222 212 213 218 212 221 217 222 217 205
252 273 130 95 95 80 111 130 192 132 118 340 227 167 191 175 140 254 18 103 23 339 348 50 358 318 302 293 246 281 341 322 283 312 273 258 256 278 267 257 273 266 239 238 257 269 271 255 269 263 238 213 221 221 220 209 211 203 205 198 196 193 191 194 189 178 165 176 172 165 172 190 196 215 185 204 207 203 210 214 202 204 208 221 228 221
198 7 133 152 130 114 119 165 218 139 161 116 253 174 166 144 128 138 128 75 344 152 337 28 142 270 320 294 293 314 339 305 308 259 267 288 290 279 261 265 261 247 262 257 264 274 280 270 276 271 234 220 218 235 201 196 202 202 198 193 194 196 193 183 176 170 170 178 187 192 199 204 206 214 225 214 203 200 212 204 208 209 206 214 220 225
100 49 73 70 96 109 125 157 222 146 119 210 249 116 108 104 125 157 103 117 195 251 299 37 97 229 303 285 258 304 323 300 309 291 296 290 282 275 269 267 264 254 244 248 257 265 256 265 244 263 263 228 235 216 178 193 189 197 200 188 196 192 181 178 166 174 182 188 193 199 211 212 217 216 224 189 207 201 188 201 213 210 215 213 220 224
135 163 137 116 81 104 171 211 171 134 126 224 196 126 121 134 138 117 92 107 117 34 281 333 302 274 257 267 308 359 337 307 288 288 298 301 302 292 281 270 264 266 261 246 265 274 281 275 266 260 282 268 248 204 182 192 191 189 179 177 172 185 179 180 174 180 195 198 196 203 205 219 227 226 231 177 186 193 191 209 212 215 218 216 219 222
351 160 216 148 131 183 232 321 158 126 96 251 134 90 94 80 68 89 102 80 341 78 266 239 200 195 279 278 331 337 238 266 265 282 292 297 294 293 306 324 318 301 295 280 256 270 283 286 286 264 282 311 291 221 144 122 139 154 150 166 172 196 187 183 184 190 199 203 197 205 210 221 228 216 230 165 206 208 188 217 215 217 218 217 220 220
255 316 170 90 180 192 135 41 149 319 126 133 100 76 35 37 20 21 59 79 52 327 253 247 300 156 290 272 226 147 213 200 252 303 304 314 344 348 308 319 347 351 341 337 315 289 286 288 311 314 324 330 3 22 68 82 112 127 154 169 182 205 187 187 194 191 203 203 202 211 212 218 225 212 204 214 233 214 213 224 223 216 223 221 227 224
13 357 93 270 91 107 103 80 18 51 88 122 99 124 76 352 13 30 345 32 139 271 265 257 232 138 187 289 285 238 283 227 205 178 270 343 351 335 341 340 335 335 333 328 345 338 336 342 351 20 13 354 346 14 54 80 88 143 163 163 193 221 198 198 202 197 210 204 213 219 216 221 222 208 206 215 224 210 217 218 226 220 223 230 238 238
34 105 264 328 197 130 112 87 2 14 0 84 91 70 111 238 37 282 13 254 220 207 273 342 186 334 239 230 254 304 262 263 223 210 201 267 293 304 333 326 315 311 326 326 315 324 328 338 335 346 341 345 352 345 317 276 208 182 173 178 191 228 203 201 195 204 211 211 217 213 218 223 214 214 214 220 225 212 217 214 223 211 223 219 224 224
270 284 341 298 37 225 139 124 142 129 349 98 126 129 100 128 87 248 278 251 307 289 272 307 294 271 246 273 245 244 254 235 236 228 236 243 257 282 300 306 302 279 241 276 285 293 294 301 312 305 302 307 309 317 314 298 232 220 207 204 204 237 200 201 199 207 211 220 220 215 219 220 209 221 216 222 220 217 213 208 219 215 216 217 220 218
124 303 250 144 240 160 190 160 174 161 172 204 110 149 177 145 158 213 192 210 219 206 289 280 69 230 101 237 183 226 239 278 263 244 249 256 269 286 277 278 292 333 349 347 313 294 302 311 310 309 311 298 273 275 294 291 265 236 243 233 237 254 240 203 213 208 219 224 218 216 217 219 214 223 221 225 218 215 213 213 218 221 218 219 223 218
202 202 270 256 275 159 175 244 109 93 39 21 154 79 90 222 139 152 208 145 211 345 355 228 216 191 169 274 278 232 272 279 296 294 332 300 339 326 332 335 323 324 324 336 347 346 325 299 311 311 304 301 299 290 277 269 254 230 243 240 241 243 245 220 217 220 220 226 217 215 217 220 218 223 227 233 221 221 209 215 213 224 219 222 221 221
53 233 343 309 51 149 169 129 147 137 176 227 104 204 207 130 98 94 73 20 101 40 256 152 303 289 298 320 284 318 285 291 336 300 327 306 299 4 257 288 318 312 321 341 350 342 332 330 304 270 284 295 306 304 292 281 253 236 245 241 249 243 239 226 220 227 222 225 219 223 219 220 218 218 219 221 222 220 217 216 219 221 223 220 217 219
152 225 329 85 194 1 239 105 90 32 150 97 187 230 184 137 118 129 219 354 66 196 266 96 235 303 20 284 335 332 306 295 264 291 333 293 340 331 278 335 301 317 317 309 306 301 281 276 304 315 249 268 306 304 302 288 270 250 242 246 257 265 253 238 223 227 222 222 225 226 221 221 219 218 223 222 225 219 221 225 224 224 226 220 215 210
121 101 307 344 32 292 350 120 30 353 24 145 197 193 117 233 223 312 88 249 144 272 272 301 275 261 192 243 344 317 207 251 251 200 85 240 270 247 337 335 340 337 351 2 353 347 351 348 344 347 344 339 344 267 252 251 241 233 241 242 239 257 255 247 232 226 232 225 231 227 225 220 222 222 224 224 224 222 226 228 222 222 225 223 213 215
134 147 283 335 134 301 7 106 198 191 356 47 92 78 117 101 158 126 199 173 124 244 52 287 33 254 201 219 201 230 216 217 236 121 173 210 181 169 93 136 116 37 19 349 346 339 330 330 326 323 328 331 329 328 314 300 295 284 271 271 267 274 272 272 255 234 237 229 231 239 234 232 221 221 221 220 220 226 229 229 223 225 224 220 214 216
167 118 192 295 303 87 188 204 215 159 148 94 94 165 178 34 229 109 45 130 177 173 182 263 305 282 261 215 192 218 214 210 192 162 153 174 189 221 198 147 142 154 221 273 288 305 315 318 318 317 313 300 309 304 295 289 298 298 315 290 279 274 281 270 260 241 249 232 236 235 235 231 221 222 215 223 222 230 234 232 226 226 224 213 225 206
118 192 186 130 83 227 243 280 149 169 185 171 167 189 177 131 139 160 255 37 98 134 235 142 259 230 270 183 203 216 219 186 211 132 132 159 181 181 192 220 199 200 238 238 250 262 284 296 296 291 296 297 310 285 272 278 302 296 278 271 281 274 266 267 269 247 256 244 243 237 238 234 231 231 222 221 221 229 235 231 227 224 218 225 226 203
144 124 103 181 201 205 213 17 295 20 80 186 182 229 172 170 109 130 199 245 40 256 108 162 320 269 244 225 218 318 279 195 192 134 121 139 175 192 233 234 238 228 223 233 228 231 233 246 267 272 259 247 231 235 254 295 295 283 286 285 272 262 267 255 266 272 256 252 249 248 244 240 236 226 228 230 231 227 227 228 229 213 221 229 226 216
102 103 109 316 317 322 316 313 53 78 104 336 303 104 140 199 182 173 164 178 167 171 149 289 246 257 286 346 301 270 263 217 202 162 137 164 214 245 245 246 254 294 291 239 219 212 207 208 208 228 312 329 345 0 4 341 300 287 282 275 272 263 270 276 266 270 263 256 254 253 249 243 240 229 231 234 237 240 236 222 219 209 221 227 219 223
158 264 139 127 26 347 344 341 349 339 97 193 182 204 188 112 81 129 102 95 147 220 175 131 236 264 269 337 340 50 121 137 140 174 138 158 228 236 259 328 356 355 360 2 1 360 0 359 355 344 339 347 349 349 348 347 339 321 302 285 275 278 276 280 280 265 260 252 259 257 249 250 239 235 237 238 239 241 242 237 234 215 222 223 225 224
187 175 144 157 180 185 198 193 210 206 194 182 238 159 172 151 134 115 210 136 220 264 159 195 245 254 283 337 30 170 144 153 236 233 220 204 234 349 344 348 4 13 4 1 358 357 348 329 324 340 343 343 345 340 337 338 337 337 333 321 305 293 304 291 285 260 263 260 258 263 255 253 246 238 239 240 243 243 244 240 232 232 233 221 231 228
171 160 192 189 195 209 214 201 62 102 109 193 214 167 189 182 179 182 123 151 213 212 178 225 228 228 245 261 243 225 191 174 176 207 200 232 288 287 343 28 18 357 347 351 335 328 335 348 344 336 337 334 330 335 334 335 334 335 334 326 332 316 290 297 286 268 264 266 257 266 261 256 248 245 246 245 248 250 242 235 231 227 231 220 226 227
83 192 220 206 220 222 207 163 194 150 172 203 188 195 190 183 181 180 184 218 207 97 252 230 209 231 238 230 237 212 222 233 229 215 211 10 338 306 321 16 355 353 354 3 0 1 349 332 336 340 336 335 335 332 335 336 333 328 326 323 323 329 325 311 295 283 278 273 270 262 266 262 263 259 255 258 253 246 241 236 230 227 228 213 221 225
147 200 230 171 239 238 205 179 175 184 183 192 198 190 192 193 181 191 213 222 177 195 232 236 151 215 242 201 214 214 198 202 195 200 217 303 302 336 13 2 350 354 358 354 348 355 352 344 331 329 333 332 334 339 339 338 339 341 338 334 331 331 327 319 313 303 294 287 272 269 269 275 273 268 265 258 254 249 243 237 233 230 225 222 230 228
129 242 215 172 222 238 223 181 180 182 209 199 201 201 197 188 194 200 214 219 208 219 231 245 195 216 236 204 205 224 209 200 153 229 359 293 259 342 33 357 340 333 352 350 340 342 339 329 329 326 328 332 338 338 340 341 340 339 335 329 331 332 326 337 314 303 298 284 275 278 282 281 283 280 271 262 255 252 248 242 235 230 230 230 229 230
154 262 128 135 195 248 222 125 191 200 187 209 218 206 201 200 204 206 212 221 220 238 246 251 260 262 250 173 208 244 110 68 349 33 307 299 346 31 53 275 280 312 345 345 353 342 328 320 320 325 332 332 335 334 332 330 327 327 327 329 330 329 329 336 320 310 295 288 289 294 296 295 288 284 274 263 264 260 253 245 236 232 232 233 229 228
150 241 60 112 182 275 219 160 181 171 210 219 228 212 211 206 214 219 218 218 195 216 229 239 250 254 254 143 203 169 141 204 216 200 231 250 102 131 164 211 270 337 354 329 321 324 330 337 335 333 329 325 323 326 333 335 332 330 331 331 330 328 328 329 327 318 308 297 302 302 299 296 295 291 283 278 267 261 253 246 238 237 235 237 234 231
168 152 164 169 192 229 237 134 126 116 102 266 240 225 212 212 209 213 224 226 218 206 216 217 231 241 191 179 132 161 173 172 156 200 215 143 148 162 153 155 164 209 217 278 308 324 316 316 314 305 312 312 317 327 322 321 320 322 322 323 316 320 324 322 318 313 306 305 304 298 299 299 298 291 286 277 270 265 256 243 244 241 239 237 233 225
130 149 177 156 208 159 140 138 120 127 212 227 226 220 198 204 202 200 213 218 220 188 216 222 246 360 117 155 158 190 174 185 182 210 199 153 149 147 152 181 197 199 239 263 283 300 304 307 308 302 287 278 283 286 289 288 281 290 294 293 303 314 317 316 315 312 305 305 302 298 300 298 295 290 283 282 277 268 258 247 245 243 239 243 232 225
124 110 170 154 160 188 154 123 150 216 229 226 326 172 198 200 181 206 222 220 196 226 265 284 273 257 209 204 202 179 187 124 92 126 110 124 122 134 139 178 198 228 247 268 300 304 313 310 317 324 330 336 334 327 332 328 329 320 317 327 328 327 325 325 322 327 324 320 315 311 309 306 296 290 289 282 275 267 258 252 257 251 240 231 231 226
175 152 156 117 138 78 157 175 217 226 214 69 271 315 9 130 171 150 260 247 208 196 200 229 241 246 247 192 106 164 144 137 110 74 134 143 137 140 101 41 326 301 304 285 289 299 308 316 312 309 307 309 324 325 330 323 330 336 328 328 329 328 331 329 331 329 331 328 327 325 319 313 305 297 290 285 276 267 263 258 250 252 242 237 243 239
167 130 149 206 199 199 180 200 223 23 329 238 241 240 166 155 153 172 215 238 211 206 199 220 233 237 216 128 144 126 114 113 99 139 279 227 233 274 92 321 285 284 261 278 260 282 294 294 305 304 305 313 320 324 324 324 332 331 327 332 331 330 325 332 327 326 322 317 318 320 320 318 310 305 302 295 289 279 270 266 262 255 235 244 241 238
156 179 182 201 231 179 163 201 253 218 233 230 225 251 195 162 170 183 191 267 218 205 206 208 228 230 203 127 144 148 139 101 161 225 239 238 226 226 306 291 308 294 289 283 301 288 296 304 308 309 316 316 318 310 310 327 334 333 331 328 329 332 328 333 325 321 318 313 316 315 315 311 306 301 300 297 288 283 279 268 262 258 222 233 244 242
215 177 178 203 197 175 209 215 207 204 235 213 210 199 198 197 154 104 151 243 242 183 192 188 223 225 166 150 149 148 138 192 224 175 221 208 201 191 272 277 268 266 271 269 273 298 308 308 312 311 321 319 321 323 331 332 337 334 324 323 323 324 320 319 316 319 317 312 311 309 307 306 301 293 291 290 285 280 278 272 263 259 228 238 243 250
181 165 159 203 208 197 204 220 229 186 236 246 208 235 207 112 109 96 187 245 208 143 168 171 202 172 150 140 146 155 168 206 198 202 199 176 273 218 204 277 307 312 307 297 280 238 257 282 314 310 310 314 309 312 321 330 337 327 316 315 317 316 312 308 308 305 303 302 303 303 303 301 299 292 287 285 285 281 270 273 274 257 239 244 234 250
190 179 204 204 200 217 216 245 360 293 284 233 216 212 171 166 120 173 209 232 175 169 158 152 146 148 139 135 153 112 175 148 169 164 99 63 11 330 242 241 256 254 268 279 274 286 280 270 254 258 268 274 278 288 298 309 315 306 301 302 308 302 297 296 300 301 299 300 300 301 299 298 291 291 290 278 280 284 281 269 263 263 244 247 242 241
192 183 203 199 216 208 213 227 238 259 233 174 335 155 174 126 207 209 233 227 149 161 184 147 136 148 135 128 123 112 150 174 43 21 1 341 237 261 267 259 278 290 266 254 261 258 232 242 249 258 267 265 277 290 300 313 319 309 311 310 303 298 298 299 300 301 302 301 300 299 299 297 295 286 283 289 286 286 280 271 253 256 252 250 243 240
180 182 189 201 199 219 193 233 216 228 259 120 121 83 285 168 227 180 133 40 102 144 137 181 144 171 132 120 130 131 128 111 123 269 256 262 276 287 298 303 295 275 281 275 266 258 254 284 292 296 296 298 299 299 288 287 300 303 311 307 301 308 312 312 309 306 302 299 297 294 292 291 289 288 288 283 279 273 276 281 268 260 247 247 247 245
178 192 179 207 180 208 198 211 211 189 148 191 157 197 196 192 190 146 132 112 223 138 147 131 201 165 149 118 143 144 159 143 244 188 283 286 279 294 294 291 289 297 300 292 286 303 326 316 306 308 310 314 315 315 313 313 304 292 289 289 294 305 309 312 312 308 303 297 293 292 289 286 284 281 278 276 277 270 269 273 260 256 242 237 238 245
220 199 181 199 178 189 208 210 228 246 156 178 95 150 174 143 150 169 126 141 148 201 175 108 147 133 164 135 114 120 106 169 141 173 165 250 260 261 279 291 296 301 306 311 315 316 321 312 310 312 308 305 303 301 303 305 302 302 296 292 311 308 311 309 310 307 299 294 290 286 284 283 278 276 276 272 264 268 265 264 248 251 244 221 237 235
333 202 78 108 252 70 30 122 151 38 76 55 29 80 133 107 93 110 122 123 167 144 164 127 189 142 133 146 108 109 129 246 44 337 329 290 275 275 265 281 300 309 311 314 316 323 318 316 308 301 298 298 288 291 293 280 257 279 284 291 292 288 293 298 300 298 292 292 291 287 285 285 282 268 261 267 256 252 257 254 245 238 239 221 229 229
259 164 111 156 260 157 244 167 139 150 87 59 103 48 55 97 94 89 97 89 127 133 134 74 117 111 120 111 105 117 312 360 26 311 311 321 318 314 318 317 318 326 327 327 324 330 331 332 322 314 312 305 307 299 290 295 285 267 278 289 287 281 284 291 291 288 287 285 288 291 290 285 285 288 275 255 256 251 254 250 247 241 239 226 223 227
272 186 158 205 173 172 244 120 108 36 82 193 180 132 131 102 73 56 75 97 99 77 78 77 92 80 83 76 81 104 237 295 111 305 308 299 293 301 307 316 322 329 324 312 312 319 312 307 300 299 300 298 302 303 290 285 286 284 280 282 289 291 291 287 286 289 291 291 291 287 286 284 279 278 278 267 242 249 254 244 235 238 234 222 215 216
196 122 199 183 172 235 35 359 263 53 42 40 51 93 137 131 116 93 96 102 99 99 86 61 54 90 88 111 97 138 141 215 308 296 301 292 305 313 317 320 320 316 314 321 316 320 310 304 301 297 297 297 303 305 302 300 298 299 298 293 289 288 296 295 297 294 290 289 291 287 285 276 273 272 271 272 260 239 232 234 232 236 247 240 218 216
95 180 205 106 104 169 179 192 170 124 205 205 199 185 163 134 119 123 117 98 105 115 124 109 89 79 92 87 96 93 72 23 11 360 342 333 323 321 323 325 325 324 321 317 309 309 306 304 305 307 304 299 308 309 306 304 301 301 305 303 294 288 287 292 298 297 294 294 293 289 290 285 277 269 266 264 266 268 264 236 232 237 239 252 231 229
174 191 149 166 177 213 226 189 182 131 97 162 171 192 145 182 129 130 133 129 107 102 121 126 131 102 62 36 33 56 41 30 4 359 338 328 324 315 314 321 324 325 322 326 324 320 321 317 317 314 309 310 317 312 307 303 302 304 311 313 297 286 283 286 291 290 288 292 290 289 290 288 286 277 263 259 261 259 266 280 256 239 239 242 239 233